TimeEDT,TemperatureF,Dew PointF,Humidity,Sea Level PressureIn,VisibilityMPH,Wind Direction,Wind SpeedMPH,Gust SpeedMPH,PrecipitationIn,Events,Conditions,WindDirDegrees,DateUTC
12:53 AM,44.1,41.0,89,29.52,10.0,Calm,Calm,-,0.01,Rain,Light Rain,0,2012-11-02 04:53:00
1:53 AM,43.0,41.0,93,29.52,7.0,Calm,Calm,-,0.00,,Overcast,0,2012-11-02 05:53:00
2:53 AM,43.0,39.9,89,29.52,9.0,Calm,Calm,-,N/A,,Overcast,0,2012-11-02 06:53:00
3:53 AM,41.0,37.9,89,29.51,7.0,Calm,Calm,-,N/A,,Mostly Cloudy,0,2012-11-02 07:53:00
4:02 AM,41.0,39.2,93,29.51,4.0,Calm,Calm,-,N/A,,Mostly Cloudy,0,2012-11-02 08:02:00
4:53 AM,41.0,39.0,93,29.51,8.0,Calm,Calm,-,N/A,,Overcast,0,2012-11-02 08:53:00
5:53 AM,41.0,39.0,93,29.51,9.0,Calm,Calm,-,N/A,,Overcast,0,2012-11-02 09:53:00
6:53 AM,41.0,37.9,89,29.51,7.0,Calm,Calm,-,N/A,,Scattered Clouds,0,2012-11-02 10:53:00
7:53 AM,39.9,37.9,93,29.53,7.0,Calm,Calm,-,N/A,,Scattered Clouds,0,2012-11-02 11:53:00
8:53 AM,46.0,42.1,86,29.53,10.0,Calm,Calm,-,N/A,,Clear,0,2012-11-02 12:53:00
9:53 AM,48.9,42.1,77,29.53,10.0,Calm,Calm,-,N/A,,Clear,0,2012-11-02 13:53:00
10:53 AM,52.0,41.0,66,29.53,10.0,Calm,Calm,-,N/A,,Clear,0,2012-11-02 14:53:00
11:53 AM,52.0,37.9,59,29.51,10.0,Calm,Calm,-,N/A,,Partly Cloudy,0,2012-11-02 15:53:00
12:53 PM,54.0,39.0,57,29.50,10.0,WSW,3.5,-,N/A,,Mostly Cloudy,250,2012-11-02 16:53:00
1:53 PM,54.0,37.9,55,29.49,10.0,West,4.6,-,N/A,,Mostly Cloudy,260,2012-11-02 17:53:00
2:53 PM,54.0,37.9,55,29.50,10.0,Variable,3.5,-,N/A,,Overcast,0,2012-11-02 18:53:00
3:53 PM,53.1,37.9,57,29.51,10.0,West,3.5,-,N/A,,Overcast,260,2012-11-02 19:53:00
4:53 PM,52.0,39.0,61,29.51,10.0,Calm,Calm,-,N/A,,Overcast,0,2012-11-02 20:53:00
5:53 PM,50.0,42.1,74,29.53,10.0,Calm,Calm,-,N/A,,Overcast,0,2012-11-02 21:53:00
6:53 PM,50.0,39.9,68,29.55,10.0,Calm,Calm,-,N/A,,Overcast,0,2012-11-02 22:53:00
7:53 PM,50.0,39.9,68,29.56,10.0,Calm,Calm,-,N/A,,Overcast,0,2012-11-02 23:53:00
8:53 PM,48.9,39.9,71,29.56,10.0,Calm,Calm,-,N/A,,Overcast,0,2012-11-03 00:53:00
9:53 PM,48.0,39.0,71,29.57,10.0,Variable,3.5,-,N/A,,Overcast,0,2012-11-03 01:53:00
10:53 PM,46.9,39.9,77,29.57,10.0,WNW,3.5,-,0.00,,Overcast,290,2012-11-03 02:53:00
11:53 PM,46.0,37.0,71,29.57,10.0,NW,4.6,-,N/A,,Overcast,310,2012-11-03 03:53:00